Location: Nairn
(57.5833°N, 3.8667°W)
Time: 05:07:33
(UTC+00:00)

UNK - Visible Passes

Search period start: 26 November 2020 00:00
Search period end: 06 December 2020 00:00
Orbit: 667 x 685 km, 98.1° (Epoch: 25 November)

Date Brightness Start Highest point End Pass type
(mag) Time Alt. Az. Time Alt. Az. Time Alt. Az.
26 Nov 5.8 16:53:53 10° N 16:57:29 22° NW 17:01:04 10° WSW visible
27 Nov 6.3 17:29:14 10° NNW 17:31:44 14° NW 17:34:13 10° WNW visible
28 Nov 5.3 16:25:44 10° N 16:29:53 32° WNW 16:34:01 10° WSW visible
29 Nov 5.9 17:00:50 10° N 17:04:15 20° NW 17:07:39 10° W visible
30 Nov 6.3 17:36:17 10° NNW 17:38:28 13° NW 17:40:39 10° WNW visible
01 Dec 5.4 16:32:38 10° N 16:36:40 29° WNW 16:40:40 10° WSW visible
02 Dec 6.0 17:07:47 10° N 17:11:00 19° NW 17:14:12 10° W visible
03 Dec 6.3 17:43:22 10° NNW 17:45:11 12° NW 17:47:00 10° WNW visible
04 Dec 5.6 16:39:32 10° N 16:43:26 27° NW 16:47:18 10° WSW visible
05 Dec 6.1 17:14:44 10° N 17:17:44 17° NW 17:20:43 10° W visible
